[[{"header":{"parameterUnit":"m.s-1","parameterCategory":1,"la1":30.2991,"la2":30.254,"lo1":-89.0895,"lo2":-89.0444,"dy":0.0017,"dx":0.0017,"nx":28,"ny":28,"refTime":"2025-03-28T09:00:00:Z","depth":0,"parameterNumber":2,"parameterNumberName":"U-component_of_WINDS"},"data":[0,0,0,0,0,0,0,0,0,0,0,0,0,0,0,0,0,0,0,0,0,0,0,0,0,0,0,0,0,0,0,0,0,0,0,0,0,0,0,0,0,0,0,0,0,0,0,0,0,0,0,0,0,0,0,0,0,0,-7.1428,-7.143,0,-7.1531,-7.1532,-7.1533,-7.1508,-7.1506,-7.1504,-7.1503,-7.1604,-7.1608,-7.1612,0,0,0,0,0,0,0,0,0,0,0,0,0,-7.1209,-7.1213,-7.1428,-7.143,-7.1431,-7.1531,-7.1532,-7.1534,-7.1509,-7.1506,-7.1504,-7.1502,-7.1602,-7.1607,-7.1613,0,0,0,0,0,0,0,0,0,0,0,0,0,-7.1307,-7.1214,-7.1428,-7.1431,-7.1432,-7.1531,-7.1532,-7.1534,-7.1509,-7.1506,-7.1503,-7.1501,-7.16,-7.1607,-7.1614,-7.1715,0,0,-7.1634,-7.1637,0,0,0,0,0,0,0,0,-7.1301,-7.1315,-7.1429,-7.1431,-7.1432,-7.1504,-7.1492,-7.1595,-7.151,-7.148,-7.1503,-7.1499,-7.1573,-7.1581,-7.1607,-7.172,-7.1724,-7.1635,-7.1639,-7.1642,-7.1644,0,0,0,0,0,0,0,-7.1295,-7.131,-7.1469,-7.1431,-7.1433,-7.1426,-7.1437,-7.1511,-7.1541,-7.1482,-7.1481,-7.1493,-7.1573,-7.1601,-7.1609,-7.1725,-7.1635,-7.1641,-7.1645,-7.1648,-7.1927,-7.193,0,0,0,0,0,0,-7.1287,-7.1305,-7.1466,-7.1472,-7.1358,-7.1432,-7.1444,-7.1484,-7.1541,-7.1546,-7.1496,-7.1492,-7.159,-7.1601,-7.1613,-7.1734,-7.1642,-7.1648,-7.1652,-7.1924,-7.1928,-7.1931,0,0,0,0,0,0,-7.1282,-7.1301,-7.1461,-7.1388,-7.1408,-7.1439,-7.1484,-7.1487,-7.1515,-7.1551,-7.1556,-7.1519,-7.1589,-7.1603,-7.169,-7.1737,-7.1651,-7.1658,-7.192,-7.1925,-7.193,-7.1979,0,0,0,0,0,0,-7.1276,-7.13,-7.1339,-7.1389,-7.1412,-7.1538,-7.1487,-7.1492,-7.1527,-7.1523,-7.1574,-7.1579,-7.1587,-7.168,-7.1697,-7.1745,-7.1663,-7.1916,-7.1922,-7.1928,-7.1973,-7.1985,-7.1995,0,0,0,0,0,-7.1268,-7.1347,-7.1341,-7.136,-7.1462,-7.154,-7.1553,-7.1562,-7.1531,-7.157,-7.1594,-7.1577,-7.1731,-7.1689,-7.1708,-7.1759,-7.1913,-7.192,-7.1928,-7.1968,-7.1982,-7.1995,0,0,0,0,0,0,-7.1299,-7.1354,-7.1347,-7.1445,-7.1489,-7.1536,-7.1585,-7.1577,-7.1629,-7.1623,-7.1631,-7.1643,-7.1731,-7.1755,-7.1707,-7.1861,-7.1817,-7.1829,-7.1841,-7.1855,-7.1866,-7.1857,-7.1669,0,0,0,0,0,-7.1318,-7.1379,-7.1423,-7.1505,-7.1528,-7.1553,-7.1588,-7.1592,-7.1636,-7.1654,-7.1683,-7.1726,-7.1784,-7.1822,-7.1877,-7.1978,-7.1988,-7.2023,-7.2034,-7.2043,-7.2051,-7.2106,-7.2121,-7.1956,-7.1956,-7.1956,0,0,-7.1356,-7.1394,-7.1431,-7.1512,-7.1546,-7.1608,-7.1568,-7.1635,-7.168,-7.1663,-7.1747,-7.1771,-7.182,-7.1914,-7.1957,-7.1936,-7.21,-7.2052,-7.2059,-7.2063,-7.2115,-7.2131,-7.2145,-7.1961,-7.196,-7.196,0,0,-7.1456,-7.1492,-7.1564,-7.16,-7.1653,-7.167,-7.1688,-7.1738,-7.1753,-7.1839,-7.1827,-7.1882,-7.1982,-7.2017,-7.2047,-7.2166,-7.2152,-7.2184,-7.224,-7.2293,-7.2306,-7.2318,-7.2358,-7.2373,-7.2194,-7.2194,-7.2194,0,-7.1496,-7.1589,-7.1602,-7.167,-7.1706,-7.1697,-7.177,-7.1804,-7.1872,-7.1896,-7.1873,-7.1999,-7.2031,-7.2134,-7.2163,-7.2189,-7.2209,-7.2176,-7.2304,-7.2315,-7.2326,-7.2365,-7.238,-7.2197,-7.2197,-7.2196,-7.2196,0,-7.1635,-7.17,-7.1753,-7.182,-7.1863,-7.1933,-7.1955,-7.1997,-7.1999,-7.2018,-7.2106,-7.2145,-7.2208,-7.2234,-7.2235,-7.2337,-7.2322,-7.2302,-7.2257,-7.2345,-7.2381,-7.2396,-7.2202,-7.2201,-7.22,-7.2199,0,0,-7.1753,-7.183,-7.1848,-7.1879,-7.1939,-7.1989,-7.206,-7.2124,-7.2159,-7.2207,-7.2265,-7.2352,-7.2335,-7.237,-7.2376,-7.2423,-7.2513,-7.2397,-7.2398,-7.2415,-7.2627,-7.2639,-7.2656,-7.2507,-7.251,-7.2512,-7.2622,0,-7.1856,-7.1981,-7.1996,-7.2107,-7.2167,-7.2161,-7.2223,-7.2266,-7.2288,-7.2341,-7.2365,-7.2426,-7.2398,-7.242,-7.2467,-7.2492,-7.2555,-7.2485,-7.2559,-7.2561,-7.2543,-7.2675,-7.2688,-7.2789,-7.2636,-7.2639,-7.264,0,-7.1992,-7.2047,-7.2164,-7.2217,-7.2243,-7.2298,-7.2358,-7.241,-7.246,-7.2472,-7.2514,-7.2515,-7.2587,-7.2544,-7.2644,-7.2596,-7.2628,-7.2646,-7.265,-7.2653,-7.2603,-7.268,-7.2822,-7.2836,-7.2663,-7.2661,-7.266,0,-7.2063,-7.2166,-7.2249,-7.2277,-7.2341,-7.238,-7.2409,-7.2456,-7.2494,-7.2547,-7.2572,-7.2633,-7.2665,-7.2712,-7.2729,-7.2696,-7.2828,-7.2786,-7.2838,-7.2838,-7.2862,-7.286,-7.3008,-7.2889,-7.2889,-7.2889,-7.2888,0,-7.2175,-7.2246,-7.2282,-7.2333,-7.2413,-7.2431,-7.2509,-7.2536,-7.2579,-7.2635,-7.2635,-7.2687,-7.2708,-7.2764,-7.2778,-7.2858,-7.2873,-7.2884,-7.2886,-7.2882,-7.288,-7.29,-7.2892,-7.2893,-7.2892,-7.2891,-7.289,0,-7.2265,-7.2293,-7.2383,-7.2439,-7.2455,-7.2511,-7.2558,-7.2607,-7.263,-7.27,-7.2718,-7.2753,-7.2819,-7.2843,-7.2922,-7.2932,-7.3024,-7.3022,-7.3007,-7.3006,-7.3056,-7.305,-7.322,-7.3242,-7.3111,-7.3113,-7.3114,0,-7.2333,-7.2388,-7.245,-7.2488,-7.2519,-7.258,-7.262,-7.2641,-7.2682,-7.2744,-7.2786,-7.2852,-7.2905,-7.3011,-7.3043,-7.3104,-7.3101,-7.3157,-7.311,-7.3104,-7.3099,-7.3094,-7.3099,-7.3164,-7.3165,-7.3166,-7.3167,0,-7.2449,-7.2461,-7.2518,-7.2582,-7.263,-7.268,-7.2729,-7.276,-7.2788,-7.2835,-7.2903,-7.2945,-7.3028,-7.3092,-7.3156,-7.3185,-7.318,-7.3183,-7.3198,-7.3192,-7.318,-7.3184,-7.3027,-7.3177,-7.3176,-7.3176,-7.3175,-7.3175,-7.2528,-7.2577,-7.2629,-7.2693,-7.2733,-7.278,-7.2829,-7.2859,-7.2917,-7.2986,-7.2996,-7.3069,-7.3119,-7.3204,-7.3237,-7.3294,-7.3278,-7.33,-7.3305,-7.331,-7.3312,-7.3175,-7.3306,-7.3306,-7.3306,-7.3305,-7.3305,0,-7.2642,-7.2676,-7.2736,-7.2805,-7.2856,-7.2852,-7.2907,-7.2949,-7.3014,-7.3062,-7.3116,-7.3194,-7.3259,-7.3298,-7.3362,-7.34,-7.34,-7.3416,-7.3411,-7.3418,-7.3323,-7.3303,-7.3415,-7.3415,-7.3415,-7.3415,-7.3415,-7.3415,-7.2707,-7.2789,-7.2807,-7.291,-7.2943,-7.3016,-7.3047,-7.309,-7.3129,-7.3217,-7.3271,-7.3297,-7.3342,-7.341,-7.3469,-7.3479,-7.3501,-7.3518,-7.3526,-7.3436,-7.3425,-7.3414,-7.3394,-7.3524,-7.3524,-7.3616,-7.3617,-7.3617]},{"header":{"parameterUnit":"m.s-1","parameterCategory":1,"la1":30.2991,"la2":30.254,"lo1":-89.0895,"lo2":-89.0444,"dy":0.0017,"dx":0.0017,"nx":28,"ny":28,"refTime":"2025-03-28T09:00:00:Z","depth":0,"parameterNumber":3,"parameterNumberName":"V-component_of_WINDS"},"data":[0,0,0,0,0,0,0,0,0,0,0,0,0,0,0,0,0,0,0,0,0,0,0,0,0,0,0,0,0,0,0,0,0,0,0,0,0,0,0,0,0,0,0,0,0,0,0,0,0,0,0,0,0,0,0,0,0,0,4.3277,4.3278,0,4.335,4.3351,4.3352,4.3377,4.3377,4.3377,4.3377,4.3446,4.3448,4.345,0,0,0,0,0,0,0,0,0,0,0,0,0,4.3157,4.3159,4.3277,4.3278,4.3279,4.335,4.3351,4.3352,4.3377,4.3377,4.3377,4.3376,4.3445,4.3448,4.345,0,0,0,0,0,0,0,0,0,0,0,0,0,4.3218,4.316,4.3277,4.33,4.3303,4.335,4.3351,4.3352,4.3377,4.3377,4.3377,4.3376,4.3445,4.3448,4.3451,4.3478,0,0,4.346,4.3462,0,0,0,0,0,0,0,0,4.3214,4.3222,4.3296,4.3299,4.3302,4.3354,4.3334,4.3394,4.3378,4.3349,4.3377,4.3376,4.3416,4.3421,4.3435,4.3481,4.3484,4.3461,4.3462,4.3464,4.3465,0,0,0,0,0,0,0,4.321,4.3219,4.3306,4.3297,4.3301,4.3306,4.3314,4.3346,4.3383,4.3352,4.3354,4.3362,4.3417,4.3432,4.3437,4.3485,4.346,4.3463,4.3465,4.3466,4.3559,4.3559,0,0,0,0,0,0,4.3202,4.3215,4.3303,4.3308,4.3256,4.3309,4.3318,4.3338,4.3383,4.339,4.3362,4.3363,4.3427,4.3433,4.344,4.3476,4.3464,4.3467,4.3468,4.3558,4.3559,4.3559,0,0,0,0,0,0,4.32,4.321,4.33,4.3262,4.3274,4.3311,4.3333,4.3339,4.3355,4.3391,4.3398,4.3371,4.3427,4.3435,4.3469,4.3479,4.3468,4.3471,4.3557,4.3558,4.3559,4.3548,0,0,0,0,0,0,4.3196,4.3209,4.322,4.3262,4.3276,4.3329,4.3334,4.3341,4.3361,4.3362,4.3401,4.3407,4.3427,4.3464,4.3472,4.3483,4.3473,4.3557,4.3558,4.3559,4.3547,4.3548,4.3549,0,0,0,0,0,4.3192,4.3212,4.322,4.3231,4.3291,4.333,4.3337,4.3362,4.3361,4.3373,4.3397,4.3406,4.3476,4.3467,4.3476,4.3488,4.3556,4.3558,4.3559,4.3547,4.3548,4.3549,0,0,0,0,0,0,4.3167,4.3218,4.3228,4.3262,4.3292,4.3334,4.3349,4.3361,4.339,4.339,4.3417,4.3426,4.3458,4.3476,4.3465,4.3518,4.3517,4.352,4.3505,4.3506,4.3507,4.3502,4.3476,0,0,0,0,0,4.3166,4.3194,4.3237,4.3263,4.3278,4.3311,4.3328,4.3345,4.3376,4.3388,4.3414,4.3443,4.3472,4.349,4.3518,4.355,4.356,4.3563,4.3564,4.3564,4.3567,4.3587,4.359,4.3564,4.3564,4.3564,0,0,4.3163,4.3194,4.321,4.3259,4.3284,4.3313,4.3321,4.335,4.3371,4.3392,4.3426,4.3447,4.348,4.3514,4.353,4.3531,4.3576,4.3566,4.3566,4.3568,4.3589,4.3591,4.3593,4.3565,4.3564,4.3564,0,0,4.3173,4.3199,4.3226,4.3251,4.329,4.3312,4.3319,4.336,4.3375,4.3411,4.3428,4.3453,4.3501,4.3525,4.3544,4.3567,4.3577,4.3575,4.3578,4.3598,4.36,4.3602,4.3612,4.3615,4.3577,4.3577,4.3577,0,4.3164,4.3209,4.3237,4.3267,4.3288,4.3311,4.3338,4.3361,4.3406,4.342,4.342,4.3484,4.3507,4.3549,4.3555,4.3568,4.3577,4.357,4.3598,4.36,4.3602,4.3612,4.3615,4.3577,4.3577,4.3577,4.3577,0,4.3198,4.3229,4.3245,4.3291,4.3315,4.3342,4.3374,4.3394,4.3409,4.3432,4.3468,4.3499,4.3535,4.3545,4.3559,4.3589,4.3588,4.3593,4.3592,4.3604,4.3614,4.3617,4.3576,4.3576,4.3576,4.3577,0,0,4.3192,4.3256,4.3261,4.3284,4.333,4.3354,4.3383,4.3421,4.3438,4.3469,4.3495,4.3537,4.3543,4.3564,4.358,4.3598,4.3616,4.3601,4.3602,4.3604,4.3653,4.365,4.3654,4.3624,4.3625,4.3625,4.3651,0,4.3209,4.3264,4.3292,4.3335,4.3365,4.3388,4.3414,4.3445,4.3467,4.3495,4.3519,4.3549,4.3553,4.3567,4.3585,4.361,4.3627,4.3609,4.3648,4.3649,4.364,4.3659,4.3655,4.3678,4.3655,4.3655,4.3656,0,4.3235,4.3269,4.3317,4.3362,4.3375,4.3398,4.3437,4.3463,4.3499,4.3514,4.3539,4.3556,4.3588,4.3586,4.3631,4.3618,4.3635,4.365,4.3652,4.3657,4.3653,4.3665,4.3685,4.3689,4.3661,4.3661,4.3661,0,4.3228,4.3286,4.3322,4.3341,4.3394,4.341,4.3432,4.3468,4.349,4.3523,4.3537,4.3572,4.3592,4.3619,4.3645,4.364,4.3688,4.3687,4.3701,4.37,4.371,4.3709,4.3734,4.372,4.372,4.372,4.372,0,4.3245,4.3273,4.3321,4.3343,4.3376,4.3407,4.3438,4.3462,4.3494,4.3522,4.3543,4.3568,4.3601,4.363,4.365,4.3686,4.3693,4.3706,4.3712,4.3705,4.3704,4.3717,4.3717,4.3721,4.372,4.372,4.372,0,4.3242,4.3275,4.3317,4.3365,4.3378,4.34,4.3441,4.3464,4.3488,4.3523,4.3532,4.357,4.3606,4.3635,4.3681,4.3695,4.3732,4.3737,4.372,4.3723,4.3737,4.3735,4.3772,4.3779,4.3759,4.3759,4.3759,0,4.325,4.3273,4.3325,4.3347,4.337,4.3403,4.3427,4.3459,4.3482,4.3527,4.3544,4.3582,4.3614,4.367,4.37,4.3736,4.3743,4.3754,4.3748,4.3742,4.3745,4.3744,4.3747,4.3754,4.3754,4.3754,4.3754,0,4.3262,4.3279,4.3313,4.3354,4.3382,4.3415,4.3448,4.3464,4.3502,4.3527,4.3566,4.3591,4.364,4.3677,4.3717,4.3739,4.3753,4.3756,4.3761,4.3755,4.3745,4.3752,4.3723,4.3755,4.3755,4.3755,4.3755,4.3755,4.3266,4.3289,4.333,4.3368,4.3398,4.3429,4.3454,4.3483,4.3516,4.356,4.3577,4.3617,4.3654,4.3709,4.3732,4.3763,4.3764,4.3771,4.3773,4.3775,4.3775,4.374,4.377,4.377,4.377,4.377,4.377,0,4.3281,4.3309,4.3344,4.3392,4.3423,4.3436,4.3474,4.3498,4.3534,4.3568,4.3601,4.3646,4.3683,4.3718,4.3757,4.3775,4.3783,4.3785,4.3784,4.3789,4.3771,4.3763,4.3778,4.3778,4.3778,4.3778,4.3778,4.3778,4.3292,4.3332,4.3353,4.3408,4.3436,4.3477,4.3499,4.3528,4.3556,4.3606,4.3639,4.3662,4.3697,4.374,4.3775,4.3784,4.3798,4.3798,4.3809,4.3791,4.379,4.3789,4.3782,4.38,4.38,4.3825,4.3825,4.3825]}]]